Regional Weather Roundup
Issued by NWS

Home | Current Version | Previous Version | Text Only | Print | Product List | Glossary Off
Versions: 1 2 3 4 5 6 7 8 9 10 11 12 13 14 15 16 17 18 19 20 21 22 23 24 25 26 27 28 29 30 31 32 33 34 35 36 37 38 39 40 41 42 43 44 45 46 47 48 49 50

000
ASUS43 KMPX 222310
RWRMN
WEATHER ROUNDUP FOR MINNESOTA
NATIONAL WEATHER SERVICE TWIN CITIES/CHANHASSEN MN
600 PM CDT SAT APR 22 2017


NOTE: "FAIR" INDICATES FEW OR NO CLOUDS BELOW 12,000 FEET WITH NO
SIGNIFICANT WEATHER AND/OR OBSTRUCTIONS TO VISIBILITY. N/A MEANS
CURRENT SKY AND/OR WEATHER CONDITIONS ARE NOT AVAILABLE.

MNZ060>063-068>070-230000-
   Twin Cities Metro

CITY           SKY/WX    TMP DP  RH WIND       PRES   REMARKS
TWIN CITIES    MOSUNNY   68  33  27 NW13      30.13S
ST PAUL        SUNNY     67  36  31 SW12      30.13S
CRYSTAL        SUNNY     67  32  27 W13       30.12S
BLAINE         SUNNY     70  36  28 SW12G17   30.12F
LAKEVILLE      SUNNY     66  37  34 W8        30.14S
EDEN PRAIRIE   SUNNY     68  35  29 W8        30.13S
SOUTH ST PAUL  SUNNY     68  33  27 W7        30.13R
LAKE ELMO      FAIR      68  34  28 W9        30.13S
$$
MNZ001>005-007-008-013>017-022>024-027-028-230000-
   Northwest Minnesota

CITY           SKY/WX    TMP DP  RH WIND       PRES   REMARKS
BEMIDJI        SUNNY     60  40  47 NW15      30.08F
HALLOCK        CLOUDY    36  30  80 N12       30.22S
ROSEAU         CLOUDY    37  32  81 N10       30.20R
WARROAD        CLOUDY    37  34  87 NW10      30.19R
CROOKSTON      MOSUNNY   48  37  66 N20       30.15R
FOSSTON        SUNNY     59  39  47 N14       30.10F
DETROIT LAKES  SUNNY     64  41  42 NW10      30.09F
MOORHEAD       SUNNY     64  41  42 N9        30.08F
PARK RAPIDS    MOSUNNY   65  35  33 W12       30.07F
MAHNOMEN       FAIR      61  42  48 NW10      30.08F
$$
MNZ006-009>011-018-025>026-230000-
   North Central Minnesota

CITY           SKY/WX    TMP DP  RH WIND       PRES   REMARKS
BAUDETTE       LGT RAIN  38  36  92 NW8       30.16S
FLAG ISLAND    CLOUDY    39  34  81 N14       30.17S
INTL FALLS     CLOUDY    42  37  82 NW10      30.13R
WASKISH        PTSUNNY   48  39  71 N12G17    30.13S
BIG FORK       SUNNY     57  39  51 N7        30.08R
LONGVILLE      PTSUNNY   64  34  32 W13G20    30.06F
GRAND RAPIDS   MOSUNNY   65  37  35 NW13G22   30.07S
CRANE LAKE     PTSUNNY   46  37  71 N8        30.12S
ORR            MOSUNNY   54  36  50 MISG      30.07R
COOK           MOSUNNY   57  39  51 N13       30.08R
WALKER         MOCLDY    63  39  41 W12G18    30.06S
$$
MNZ012-019>021-037-230000-
   Northeast Minnesota

CITY           SKY/WX    TMP DP  RH WIND       PRES   REMARKS
DULUTH         MOSUNNY   64  37  36 W16       30.04S
ELY            SUNNY     55  37  50 NW12G20   30.05S
HIBBING        CLOUDY    61  40  45 NW13      30.03F
EVELETH        SUNNY     60  32  34 NW10G18   30.05R
DULUTH HARBOR  MOSUNNY   68  37  32 W16       30.04S
TWO HARBORS    MOSUNNY   70  41  35 W12G18    30.01S
SILVER BAY     SUNNY     68  32  26 W7G16     29.99S
GRAND MARAIS     N/A     62  41  46 N12G26    29.98R
G MARAIS ARPRT SUNNY     54  36  50 NW18G26   30.03R
$$
MNZ029>031-032-039>041-046>048-054>057-064-230000-
   West Central Minnesota

CITY           SKY/WX    TMP DP  RH WIND       PRES   REMARKS
FERGUS FALLS   MOSUNNY   66  39  37 W16       30.08F
WHEATON        SUNNY     70  32  24 SW12G18   30.12F
MORRIS         SUNNY     66  37  34 W16       30.12S
ALEXANDRIA     SUNNY     66  35  31 W14       30.12F
ELBOW LAKE     FAIR      65  38  36 W14       30.11F
WADENA         SUNNY     64  39  39 W13G20    30.10S
GLENWOOD       SUNNY     66  36  32 W15       30.13S
APPLETON       SUNNY     70  30  23 SW10      30.13S
BENSON         SUNNY     72  18  13 NW12G17   30.15S
ORTONVILLE     SUNNY     68  36  30 W9G18     30.12F
MADISON        SUNNY     70  34  26 W10G16    30.13F
WILLMAR        FAIR      68  37  32 W9        30.15S
$$
MNZ033>034-036-042>043-049>051-058-059-230000-
   Central Minnesota

CITY           SKY/WX    TMP DP  RH WIND       PRES   REMARKS
ST CLOUD       SUNNY     67  35  30 W10       30.11F
SAUK CENTRE    FAIR      65  36  34 W12       30.12S
PAYNESVILLE    SUNNY     67  33  28 W12       30.13F
AITKIN         PTSUNNY   66  28  24 W12G17    30.07F
PINE RIVER     MOSUNNY   64  39  39 SW10G21   30.11S
BRAINERD       MOSUNNY   66  33  29 W13G24    30.09F
STAPLES        MOSUNNY   64  34  32 W14       30.10F
LONG PRAIRIE   FAIR      64  36  34 SW13G18   30.12F
LITTLE FALLS   SUNNY     64  34  32 W8G17     30.11S
LITCHFIELD     SUNNY     68  36  30 NW8       30.14S
BUFFALO        SUNNY     66  33  29 W6        30.14S
MAPLE LAKE     SUNNY     68  34  28 W9        30.14S
HUTCHINSON     CLOUDY    68  36  30 W12       30.15R
$$
MNZ037-044-045-052-053-230000-
   East Central Minnesota

CITY           SKY/WX    TMP DP  RH WIND       PRES   REMARKS
PRINCETON      SUNNY     70  30  23 W12G17    30.12S
MORA           SUNNY     64  34  32 W10G17    30.12S
CAMBRIDGE      SUNNY     70  45  40 W10       30.10S
RUSH CITY      SUNNY     67  35  31 W9        30.11S
MOOSE LAKE     MOSUNNY   68  34  28 W12G20    30.06S
HINCKLEY       FAIR      68  36  30 SW10G17   30.09S
CLOQUET        MOSUNNY   66  28  24 SW15G22   30.05F
MCGREGOR       MOSUNNY   64  36  34 W10G17    30.08S
$$
MNZ071>073-080-081-089-090-097-098-230000-
   Southwest Minnesota

CITY           SKY/WX    TMP DP  RH WIND       PRES   REMARKS
MONTEVIDEO     SUNNY     72  36  26 W9        30.13F
GRANITE FALLS  SUNNY     70  35  27 SW10G17   30.15F
CANBY          SUNNY     69  33  26 W9        30.16S
MARSHALL       SUNNY     68  33  27 W14       30.15F
REDWOOD FALLS  SUNNY     68  34  28 W7        30.14S
OLIVIA         SUNNY     70  37  30 NW5       30.14S
PIPESTONE      SUNNY     66  25  20 NW8       30.17S
WINDOM         SUNNY     68  32  26 W10       30.16F
WORTHINGTON    SUNNY     65  36  34 W10       30.18F
JACKSON        SUNNY     66  30  26 W10       30.18S
TRACY          SUNNY     68  34  27 W8        30.16S
SLAYTON        SUNNY     65  35  33 NW8       30.18F
$$
MNZ065>067-074>077-082>085-091>093-230000-
   South Central Minnesota

CITY           SKY/WX    TMP DP  RH WIND       PRES   REMARKS
MANKATO        SUNNY     67  34  29 W8        30.15F
NEW ULM        SUNNY     66  34  30 W9        30.14F
ST JAMES       SUNNY     66  34  30 CALM      30.17S
FAIRMONT       SUNNY     67  35  30 N8        30.17S
GLENCOE        SUNNY     68  38  33 W7        30.13S
FARIBAULT      SUNNY     66  34  30 W6        30.15S
OWATONNA       SUNNY     66  30  26 CALM      30.15F
WASECA         SUNNY     64  32  29 W6        30.17S
ALBERT LEA     SUNNY     64  27  24 NW6       30.16S
$$
MNZ078>079-086>088-094>096-230000-
   Southeast Minnesota

CITY           SKY/WX    TMP DP  RH WIND       PRES   REMARKS
ROCHESTER      SUNNY     64  31  28 VRB7      30.16S
RED WING       SUNNY     70  28  21 W9        30.12F
STANTON        SUNNY     67  33  28 CALM      30.13S
DODGE CENTER   SUNNY     64  34  32 NW9       30.16S
WINONA         SUNNY     66  32  28 W6        30.15S
AUSTIN         SUNNY     64  34  32 W8        30.16S
PRESTON        SUNNY     63  31  30 NW5       30.17S
$$
ABBREVIATIONS USED IN REMARKS
   TC - TEMPERATURES IN CELSIUS
  WCI - WIND CHILL INDEX
   HX - HEAT INDEX
  VSB - VISIBILITY
$$




USA.gov is the U.S. government's official web portal to all federal, state and local government web resources and services.